Location: All Nations United Methodist Church
(33.0215°N, 96.7483°W)
Time: 15:30:50
(UTC+00:00)

CZ-2C R/B - Pass Details

Date: 24 January 2021
Orbit: 785 x 870 km, 98.2° (Epoch: 06 March)

Event Time Altitude Azimuth Distance (km) Brightness Sun altitude
Rises 12:32:17 0° 154° (SSE) 3,269 6.4 -11.6°
Reaches altitude 10° 12:34:38 10° 149° (SSE) 2,350 5.7 -11.2°
Maximum altitude 12:39:39 53° 74° (ENE) 979 3.4 -10.2°
Drops below altitude 10° 12:44:48 10° 358° (N) 2,407 4.9 -9.1°
Sets 12:47:13 0° 354° (N) 3,355 5.6 -8.6°
